User: anonymous   Login
Location: Space Photons Observatory
(33.2428°N, 111.5467°W)
Time: 12:54:04
(UTC-07:00)
Language:

RESURS DK-1 - Orbit

View from above orbital plane
View from above orbital plane
View from above satellite
View from above satellite

Ground track
Ground track

The orbit data is extracted from the following two-line orbital elements,

1 29228U 06021A   18174.18913266  .00000018  00000-0  87428-5 0  9992
2 29228  69.9351 234.0346 0003201 174.1560 185.9638 15.02330427663811
Epoch (UTC): 23 June 2018 04:32:21
Eccentricity: 0.0003201
inclination: 69.9351°
perigee height: 557 km
apogee height: 562 km
right ascension of ascending node: 234.0346°
argument of perigee: 174.1560°
revolutions per day: 15.02330427
mean anomaly at epoch: 185.9638°
orbit number at epoch: 66381

The dashed part of the orbit path shows where the satellite is in the earth's shadow,  

DLR